Anula, Australia

1:51 AM ACST on May 01, 2017 (GMT +0930)
Anula

Weather History for 94120 - July, 2013

Change the Weather History Date:

Wednesday, July 10, 2013

  Actual Average Record
Temperature  
Mean Temperature 81 °F -  
Max Temperature 90 °F 87 °F - ()
Min Temperature 72 °F 68 °F - ()
Cooling Degree Days 16    
Growing Degree Days 31 (Base 50)    
Moisture  
Dew Point 60 °F    
Average Humidity 53    
Maximum Humidity 83    
Minimum Humidity 16    
Precipitation  
Precipitation 0.00 in 0.00 in - ()
Sea Level Pressure  
Sea Level Pressure 29.87 in    
Wind  
Wind Speed 11 mph ()    
Max Wind Speed 22 mph    
Max Gust Speed 30 mph    
Visibility 17.0 miles    
Events      
T = Trace of Precipitation, MM = Missing Value Source: Averaged Metar Reports

Daily Weather History Graph

Daily Weather History Graph

Search for Another Location

Airport or City:

Trip Planner

Search our weather history database for the weather conditions in past years. The results will help you decide how hot, cold, wet, or windy it might be!

Date:

Astronomy

Jul. 10, 2013 Rise Set
Actual Time 7:08 AM ACST 6:34 PM ACST
Civil Twilight 6:45 AM ACST 6:57 PM ACST
Nautical Twilight 6:19 AM ACST 7:24 PM ACST
Astronomical Twilight 5:53 AM ACST 7:50 PM ACST
Moon 8:15 AM ACST (7/10) 8:12 PM ACST (7/10)
Length of Visible Light 12h 11m
Length of Day
11h 26m
Waxing Crescent, 3% of the Moon is Illuminated
Jul 10
Waxing Crescent
Jul 16
First Quarter
Jul 23
Full
Jul 30
Last Quarter
Aug 7
New

Hourly Weather History & Observations

Time (ACST) Temp. Heat Index Dew Point Humidity Pressure Visibility Wind Dir Wind Speed Gust Speed Precip Events Conditions
12:00 AM 75 °F - 65 °F 65% 29.90 in 16 mi SSE 6.9 mph - -   Smoke
12:00 AM 75.2 °F - 66.2 °F 73% 29.89 in - SSE 6.9 mph - N/A   Clear
12:30 AM 73 °F - 66 °F 73% 29.89 in - ESE 5.8 mph - -  
12:30 AM 73.4 °F - 66.2 °F 78% 29.89 in - ESE 5.8 mph - N/A   Clear
1:00 AM 71.6 °F - 66.2 °F 83% 29.89 in - ESE 5.8 mph - N/A   Clear
1:30 AM 71.6 °F - 66.2 °F 83% 29.89 in - East 6.9 mph - N/A   Clear
2:00 AM 75.2 °F - 66.2 °F 73% 29.89 in - ESE 8.1 mph - N/A   Clear
2:30 AM 75.2 °F - 66.2 °F 73% 29.86 in - East 8.1 mph - N/A   Clear
3:00 AM 76 °F - 63 °F 55% 29.88 in 12 mi East 10.4 mph - -   Smoke
3:00 AM 75.2 °F - 62.6 °F 65% 29.86 in - East 10.4 mph - N/A   Clear
3:30 AM 75 °F - 62 °F 56% 29.88 in - East 9.2 mph - -  
3:30 AM 75.2 °F - 62.6 °F 65% 29.86 in - East 9.2 mph - N/A   Clear
4:00 AM 73.4 °F - 62.6 °F 69% 29.89 in - East 9.2 mph - N/A   Clear
4:30 AM 73.4 °F - 60.8 °F 65% 29.89 in - East 10.4 mph - N/A   Clear
5:00 AM 73.4 °F - 60.8 °F 65% 29.89 in - East 10.4 mph - N/A   Clear
5:30 AM 73.4 °F - 60.8 °F 65% 29.89 in - East 11.5 mph - N/A   Clear
6:00 AM 72 °F - 61 °F 60% 29.89 in 16 mi East 11.5 mph - -   Smoke
6:00 AM 71.6 °F - 60.8 °F 69% 29.89 in - East 11.5 mph - N/A   Clear
6:30 AM 72 °F - 61 °F 60% 29.89 in - East 12.7 mph - -  
6:30 AM 73.4 °F - 60.8 °F 65% 29.89 in - East 12.7 mph - N/A   Clear
7:00 AM 71.6 °F - 60.8 °F 69% 29.89 in - East 11.5 mph - N/A   Clear
7:30 AM 73.4 °F - 60.8 °F 65% 29.89 in - East 13.8 mph - N/A   Clear
8:00 AM 73.4 °F - 62.6 °F 69% 29.92 in - East 15.0 mph - N/A   Clear
8:30 AM 75.2 °F - 62.6 °F 65% 29.92 in - East 19.6 mph - N/A   Clear
9:00 AM 77 °F - 62 °F 50% 29.93 in 19 mi East 20.7 mph - -   Partly Cloudy
9:00 AM 77.0 °F - 62.6 °F 61% 29.92 in - East 20.7 mph - N/A   Clear
9:30 AM 79 °F - 60 °F 43% 29.93 in - East 19.6 mph - -  
9:30 AM 78.8 °F - 60.8 °F 54% 29.92 in - East 19.6 mph - N/A   Clear
10:00 AM 82.4 °F 82.5 °F 59.0 °F 45% 29.92 in - East 19.6 mph - N/A   Clear
10:30 AM 82.4 °F 82.0 °F 57.2 °F 42% 29.92 in - East 18.4 mph - N/A   Clear
11:00 AM 84.2 °F 83.5 °F 57.2 °F 40% 29.92 in - East 19.6 mph - N/A   Clear
11:30 AM 86.0 °F 84.5 °F 55.4 °F 35% 29.89 in - ESE 19.6 mph - N/A   Clear
12:00 PM 87 °F - 53 °F 21% 29.89 in 19 mi East 21.9 mph - -   Partly Cloudy
12:00 PM 87.8 °F 85.7 °F 53.6 °F 31% 29.89 in - East 21.9 mph - N/A   Clear
12:30 PM 88 °F - 55 °F 22% 29.88 in - East 20.7 mph - -  
12:30 PM 87.8 °F 86.1 °F 55.4 °F 33% 29.86 in - East 20.7 mph - N/A   Clear
1:06 PM 89.6 °F - 51.8 °F 27% 29.86 in - East 18.4 mph 29.9 mph N/A   Clear
1:30 PM 89.6 °F - 51.8 °F 27% 29.83 in - ESE 20.7 mph - N/A   Clear
2:00 PM 89.6 °F - 51.8 °F 27% 29.83 in - East 17.3 mph - N/A   Clear
2:19 PM 87.8 °F - 51.8 °F 29% 29.83 in - East 18.4 mph 29.9 mph N/A   Clear
2:30 PM 89.6 °F - 51.8 °F 27% 29.80 in - East 16.1 mph - N/A   Clear
3:00 PM 90 °F - 49 °F 16% 29.81 in 16 mi East 17.3 mph - -   Smoke
3:00 PM 89.6 °F - 50.0 °F 26% 29.80 in - East 17.3 mph - N/A   Clear
3:30 PM 90 °F - 51 °F 17% 29.81 in - East 18.4 mph - -  
3:30 PM 89.6 °F - 50.0 °F 26% 29.80 in - East 18.4 mph - N/A   Clear
4:00 PM 89.6 °F - 51.8 °F 27% 29.80 in - East 16.1 mph - N/A   Clear
4:30 PM 89.6 °F 87.3 °F 53.6 °F 29% 29.80 in - East 17.3 mph - N/A   Clear
5:00 PM 87.8 °F 87.1 °F 59.0 °F 38% 29.80 in - NNE 12.7 mph - N/A   Clear
5:30 PM 87.8 °F 87.1 °F 59.0 °F 38% 29.80 in - NNE 12.7 mph - N/A   Clear
6:00 PM 85 °F - 60 °F 33% 29.81 in 19 mi NE 12.7 mph - -   Partly Cloudy
6:00 PM 86.0 °F 86.1 °F 60.8 °F 43% 29.80 in - NE 12.7 mph - N/A   Clear
6:30 PM 83 °F - 62 °F 38% 29.83 in - NNE 10.4 mph - -  
6:30 PM 82.4 °F 83.4 °F 62.6 °F 51% 29.83 in - NNE 10.4 mph - N/A   Clear
7:00 PM 80.6 °F 82.3 °F 64.4 °F 58% 29.83 in - NE 9.2 mph - N/A   Clear
7:30 PM 78.8 °F - 66.2 °F 65% 29.86 in - NE 9.2 mph - N/A   Clear
8:00 PM 77.0 °F - 66.2 °F 69% 29.86 in - NE 9.2 mph - N/A   Clear
8:30 PM 78.8 °F - 66.2 °F 65% 29.89 in - East 5.8 mph - N/A   Clear
9:00 PM 77 °F - 66 °F 61% 29.89 in 19 mi NE 9.2 mph - -   Partly Cloudy
9:00 PM 77.0 °F - 66.2 °F 69% 29.89 in - NE 9.2 mph - N/A   Clear
9:30 PM 76 °F - 58 °F 44% 29.91 in - East 12.7 mph - -  
9:30 PM 77.0 °F - 66.2 °F 69% 29.89 in - NE 6.9 mph - N/A   Clear
10:00 PM 75.2 °F - 66.2 °F 73% 29.89 in - East 5.8 mph - N/A   Clear
10:30 PM 73.4 °F - 66.2 °F 78% 29.89 in - East 4.6 mph - N/A   Clear
11:00 PM 73.4 °F - 66.2 °F 78% 29.92 in - East 5.8 mph - N/A   Clear
11:30 PM 73.4 °F - 66.2 °F 78% 29.92 in - ENE 5.8 mph - N/A   Clear